CAPE
2195 2139 1940 2047 2087 2050 1794 1842 1799 1643 1637 1497 1495 1504 1480 1376 1507 1416 1394 1370 1301 1203 1093 948 762 742 668 595 522 495 536 518 422 567 638 929 728 566 1086 1102 1138 1282 1357 1243 1296 1057 1013 1162 1151 1327 1024 1072 928 976 1362 1183 1124 1035 1056 989 859 781 957 758 840 783 902 898 810 897 963 963 1037 1108 874 1046 1120 1343 1333 1172 1100 948 1120 1248 1160
2120 2159 1993 1898 1905 1832 1767 1765 1631 1648 1566 1447 1453 1381 1350 1305 1349 1314 1318 1224 1159 1091 968 838 822 813 724 638 607 572 541 520 469 458 670 982 858 1296 1323 1146 1215 1176 1193 1394 1325 1081 1177 1219 1252 1244 1124 1018 1021 1183 1212 1185 1094 956 1015 870 695 662 979 967 794 846 817 845 965 990 1046 1148 1047 1092 1046 1055 1484 1236 1112 1050 994 963 1130 1068 1056
2202 2156 1936 1800 1905 1819 1676 1598 1545 1545 1442 1387 1324 1360 1316 1228 1234 1230 1245 1182 1082 984 885 932 825 687 710 718 589 590 477 536 480 472 596 792 877 899 980 1217 1202 1118 1343 1396 1306 1320 1154 1243 1253 1120 1077 1132 1226 1127 1207 1068 1013 955 920 879 632 645 804 833 816 699 730 840 956 896 904 857 1033 1247 847 1357 1275 1218 1088 1067 937 844 893 928 830
2132 2099 1901 1971 1958 1788 1660 1538 1528 1358 1259 1298 1356 1286 1218 1181 1185 1206 1110 1052 974 965 967 870 810 769 766 675 610 546 474 464 426 468 571 713 802 812 989 1124 1123 1341 1353 1426 1438 1380 1160 1262 1262 1334 1215 1041 1119 1174 1207 1201 1041 948 874 878 757 762 672 910 891 723 670 762 783 882 996 1039 1016 1018 1139 1097 1010 856 813 868 862 804 581 616 692
2159 2152 1850 1755 1678 1684 1507 1432 1459 1268 1268 1224 1184 1127 1072 1039 1054 987 1051 1075 1093 969 894 841 841 800 708 668 657 577 533 497 472 441 538 719 750 716 859 892 1223 1338 1376 1301 1401 1434 1402 1279 1158 1225 1053 978 1028 1082 988 989 1063 964 910 922 929 817 766 703 673 635 632 710 515 583 597 544 790 965 1084 809 534 458 498 568 586 622 643 544 593
1985 2141 2011 1612 1536 1576 1562 1464 1379 1370 1318 1118 1071 1052 993 1036 939 925 1038 1065 1000 944 928 795 840 728 748 734 699 606 508 445 457 541 703 662 714 868 772 967 878 834 1322 1371 1305 1246 1218 1350 1242 933 897 853 973 1033 1027 1003 1019 980 910 740 480 418 446 449 407 422 446 447 352 268 244 363 310 410 598 531 500 556 527 507 512 543 557 583 592
2128 2136 1914 1559 1524 1594 1631 1459 1401 1250 1075 1013 968 988 1006 883 1005 1029 1075 1046 966 914 884 854 792 785 739 694 633 574 566 541 501 462 629 768 818 1021 808 888 861 756 1036 1041 1090 1104 1194 1114 870 738 807 952 924 834 1085 1084 1024 999 849 572 475 372 381 352 343 321 224 210 230 204 177 126 121 230 204 186 231 285 321 399 492 559 609 532 751
2108 1943 1835 1572 1548 1693 1680 1409 1313 1241 1181 1060 1029 1146 1205 1072 1026 1026 1016 978 968 888 880 841 808 856 754 695 677 656 627 576 499 497 683 914 844 926 1104 847 795 1050 1011 981 946 950 908 880 676 805 1082 1273 1224 1207 1077 1144 1099 979 744 612 550 424 259 217 133 87 28 42 84 123 103 102 166 150 309 411 606 941 1083 1095 1220 1091 1245 1195 1018
2009 1895 1921 1714 1563 1543 1758 1540 1435 1352 1213 1092 1277 1283 1283 1149 1038 979 924 922 935 932 880 866 886 861 755 706 771 732 694 622 569 488 476 809 1146 1188 1104 973 786 1086 1177 1202 1112 907 839 694 688 969 1268 1297 1448 1338 1262 1141 1072 842 687 611 551 479 366 192 81 2 3 32 26 23 59 41 29 22 300 364 825 894 889 993 1219 1143 1124 1068 916
2107 2126 1892 1684 1489 1950 1767 1602 1508 1334 1374 1381 1308 1292 1151 1128 1037 940 942 979 985 1019 921 900 861 808 800 814 799 786 774 788 805 621 602 773 911 1068 1286 1230 1034 886 903 887 950 936 706 588 797 1170 1319 1405 1502 1422 1317 1137 937 802 658 594 583 467 299 193 99 95 80 69 101 192 366 257 238 416 846 895 1065 1003 1040 1005 1191 1146 1060 978 902
2021 2151 1698 1656 1510 1960 1789 1681 1610 1535 1314 1256 1348 1005 1166 1244 1038 997 984 923 937 1089 1062 900 812 854 919 883 866 857 778 909 941 939 951 866 868 937 903 976 1183 1117 932 909 1008 806 572 641 866 1285 1352 1358 1281 1138 1116 1120 917 729 603 570 515 346 231 137 46 58 98 91 127 12 18 104 225 768 1045 1098 1172 1084 1010 999 948 1006 930 938 1037
2049 2208 2078 1794 2046 1851 1890 1901 1797 1571 1543 1386 1113 1238 1315 1385 1090 1062 1003 973 1104 1111 1243 1220 1024 898 871 847 854 824 1063 1569 1584 1529 1509 1451 1319 1269 1140 1063 1054 1018 1008 1092 960 684 769 822 1023 1193 1219 1321 1280 1179 1042 1055 819 725 623 536 439 296 223 120 36 60 111 147 201 202 496 550 695 895 1111 1107 1000 926 883 875 879 975 954 954 951
2136 2178 2050 2077 1658 1966 1980 1924 1865 1737 1473 1333 1391 1355 1515 1377 1172 1213 1208 1244 1231 1301 1356 1298 1235 1148 1094 1058 991 940 1434 1330 1444 1448 1598 1422 1590 1342 1218 1078 1070 1184 1224 1015 732 800 906 986 1133 1172 1219 1310 1323 1180 1041 890 740 664 582 443 319 228 172 51 68 90 154 103 222 261 272 544 626 667 694 721 669 599 679 686 604 639 659 670 554
2214 2178 2052 1944 1634 1958 2023 1950 1952 1765 1558 1470 1455 1519 1435 1257 1319 1441 1503 1424 1461 1511 1593 1474 1315 1314 1290 1324 1330 1209 1280 1433 1478 1541 1655 1619 1305 1650 1476 1353 1347 1282 1147 919 977 958 1027 1092 1238 1218 1190 1265 1230 1097 978 868 711 586 509 381 270 221 232 156 133 129 150 108 202 173 284 399 388 512 406 417 393 346 387 453 494 459 443 347 188
2140 2086 2044 1848 1838 1680 2086 2015 1936 1938 1754 1594 1588 1436 1395 1432 1560 1700 1705 1675 1608 1684 1643 1625 1524 1397 1426 1468 1459 1488 1479 1553 1634 1816 1821 1747 1625 1458 1248 1329 1272 1253 1139 1084 954 1166 1373 1441 1336 1233 1151 1149 1132 1012 914 812 688 524 339 283 275 228 123 83 49 70 158 156 114 96 156 257 480 394 302 296 297 287 275 274 294 295 328 130 96
2228 2253 2036 1978 1857 1895 1636 2166 2029 1983 1878 1798 1631 1524 1545 1646 1742 1830 1940 1875 1678 1617 1639 1671 1623 1477 1510 1499 1502 1588 1555 1721 1940 1826 1745 1529 1459 1429 1358 1185 1225 1073 1181 950 1084 1321 1455 1605 1451 1156 1103 1141 1089 933 846 692 487 364 292 262 232 194 157 102 85 84 153 144 117 110 150 270 498 302 361 300 276 301 357 325 273 278 248 138 379
2168 2065 2141 2000 1986 1807 1653 1738 2029 2098 2049 1920 1763 1709 1778 1762 1817 1920 1965 1899 1767 1722 1760 1746 1710 1565 1503 1468 1544 1678 1924 1973 1879 1731 1546 1524 1472 1428 1350 1236 1187 1135 1051 1096 1187 1354 1546 1620 1442 1188 1167 1111 932 798 668 546 414 321 288 260 262 229 194 121 134 135 160 188 217 218 339 351 384 399 414 379 411 393 302 286 284 311 239 260 227
2229 2100 2058 2062 1932 1828 1832 1786 1982 1748 1901 1942 1913 1902 1909 1874 1848 1922 1940 1902 1859 1806 1769 1788 1756 1607 1577 1752 2005 2063 1903 1858 1738 1585 1515 1442 1344 1368 1387 1390 1109 1265 1046 1110 1279 1325 1496 1575 1416 1181 1088 963 854 763 590 439 331 291 296 256 254 222 161 117 180 142 153 173 193 284 263 420 438 384 420 366 179 139 278 231 156 63 8 69 314
1978 2068 2089 2026 1821 1822 1756 1840 2004 1722 1814 1809 1598 1597 1980 1929 1908 1975 1972 1939 1907 1859 1859 1905 1858 1860 1943 2035 1986 1984 1856 1700 1611 1597 1494 1400 1484 1390 1349 1277 1260 1196 1120 1198 1229 1406 1461 1471 1212 1029 1095 941 761 588 471 357 322 330 306 273 250 257 145 147 156 152 164 218 129 114 160 359 311 178 120 60 64 109 114 112 82 128 100 150 148
2102 2311 2285 2066 1858 1825 1793 1814 1776 1809 1819 1804 1770 1760 2025 1961 2012 2015 1985 1996 2031 2037 1916 1984 1966 1943 1795 1725 1616 1905 1800 1703 1605 1561 1562 1440 1240 1065 1388 1170 1243 1264 1079 1123 1149 1211 1388 1376 1317 1199 1018 801 658 510 437 398 378 337 291 284 259 163 185 161 129 139 143 229 263 177 380 267 174 159 202 202 207 126 40 119 95 74 94 166 113
1831 1867 1912 1961 1884 1821 1774 1810 1813 1745 1874 1785 1766 1787 1822 2029 2046 2023 1953 1971 2029 2042 2006 2065 2075 1888 1817 1570 1584 1576 2095 1978 1629 1605 1588 1254 1468 1383 1412 1316 1300 1275 1066 1018 1029 1128 1152 1060 1011 944 835 724 640 574 489 427 331 295 292 292 179 161 164 150 144 132 172 143 170 178 299 215 198 143 168 193 139 95 92 70 71 26 12 29 66
1514 1888 2207 1977 1971 1796 1758 1732 1670 1629 1684 1672 1778 1917 1698 1850 1787 1663 1663 1954 1907 2027 1916 1599 1619 1462 1481 1856 2124 1958 2049 2170 1639 1615 1493 1360 1293 1360 1414 1198 1177 1290 1135 966 1044 984 982 1076 942 894 786 751 676 588 522 448 308 248 215 172 137 149 180 168 166 147 154 138 204 144 77 88 96 108 98 67 71 80 71 74 44 32 42 14 20
1665 1688 2048 2132 2082 1969 1820 1767 1562 1511 1727 1712 1801 1824 1737 1721 1615 1609 1578 1655 1673 1680 1498 1525 1518 1521 1600 1580 2371 2082 1830 1817 2179 1358 1490 1304 1154 1356 1367 1320 1287 1148 1099 1160 1173 1128 1100 986 846 808 984 925 1007 796 456 273 223 200 145 156 172 140 181 217 200 215 204 178 138 108 138 156 114 92 87 61 84 57 44 19 40 30 38 25 14
1458 1611 1827 1884 2178 2216 1893 1799 1765 1843 1758 1725 1724 1640 1608 1654 1543 1578 1506 1596 1569 1632 1477 1530 1474 1554 1520 1675 1842 1879 1880 2032 1566 1622 1605 1395 1280 1283 1205 1257 1174 1132 1148 1158 1085 1045 1002 1110 1152 885 682 647 767 514 402 315 159 130 155 144 133 143 212 285 262 224 150 127 99 100 84 76 91 92 92 70 66 68 50 39 45 20 14 15 10
1393 1447 1658 1687 1838 2019 1952 1886 1851 1856 1798 1767 1694 1613 1655 1467 1518 1505 1609 1713 1704 1668 1716 1690 1478 1506 1776 1826 1497 1576 1716 1776 1835 1452 1164 1180 1254 1113 1108 975 944 869 792 857 892 674 815 774 735 624 680 723 567 306 160 113 105 91 140 158 162 181 177 234 121 82 154 153 113 79 56 88 86 67 76 31 56 64 29 26 13 9 2 1 1
1451 1444 1472 1726 1797 1997 1974 1937 1827 1814 1895 1820 1750 1565 1604 1444 1426 1515 1488 1761 1652 1711 1583 1646 1579 1886 1994 1524 1433 1579 1855 1449 1418 1249 1080 1157 1147 921 845 927 892 691 662 805 845 859 852 827 795 715 642 508 386 204 145 83 103 98 143 198 176 188 161 136 96 196 150 150 78 63 89 70 66 58 62 61 43 50 34 16 14 15 5 2 0
1359 1398 1534 1681 1705 1939 1984 1924 1885 1920 1896 1916 1736 1604 1575 1431 1408 1406 1440 1748 1815 1537 1441 1431 1630 1625 1472 1374 1475 1825 1731 1285 1209 1103 1049 1102 1068 888 837 830 846 602 587 743 880 856 846 868 849 714 464 276 186 115 128 104 112 108 156 202 177 145 119 82 108 179 138 108 43 25 25 43 49 58 93 59 69 71 49 28 12 4 0 0 0
1314 1440 1564 1730 1747 1906 2006 1882 1879 1944 1958 1918 1804 1594 1610 1612 1624 1788 1798 1803 1620 1463 1419 1629 1848 1726 1414 1362 1464 1404 1260 1292 1207 1116 984 1055 1017 840 763 669 636 512 532 677 806 740 787 811 758 514 272 124 122 128 141 158 147 134 226 253 244 186 122 119 152 142 122 128 73 69 68 108 92 55 56 77 96 50 58 74 70 51 27 6 0
1196 1374 1457 1526 1712 1851 1885 1852 2010 2116 1991 1937 1773 1672 1712 1849 1919 1866 1774 1675 1725 1678 1557 1726 1730 1614 1682 1439 1600 1456 1276 1258 1203 1078 968 861 876 825 665 548 519 511 483 468 821 805 760 751 676 470 335 174 150 151 139 144 275 263 263 252 258 277 196 158 152 136 99 101 95 64 32 24 99 97 33 56 68 94 108 116 110 80 55 35 1
1044 1337 1398 1478 1547 1673 1710 1871 1769 1888 2080 1893 1857 1804 1669 1719 1782 1836 1719 1557 1723 1719 1676 1529 1667 1325 1310 1515 1374 1322 1218 1135 1198 1112 904 854 863 839 660 482 431 478 470 376 748 953 747 722 701 457 228 208 192 182 188 180 173 296 344 359 207 175 203 142 139 110 66 96 172 106 244 251 126 135 146 167 171 175 171 167 167 163 76 18 20
1210 1218 1340 1411 1587 1655 1616 1839 1888 1932 1847 1787 2002 1988 1814 1539 1556 1711 1961 1586 1448 1643 1601 1521 1297 1210 1314 1454 1339 1356 1248 1108 1119 955 800 831 770 731 634 462 356 412 481 461 612 1021 852 742 753 568 450 247 238 226 255 267 247 405 444 178 170 120 174 139 139 91 30 58 143 391 278 452 517 697 512 357 264 166 190 243 172 114 105 92 89
1235 1182 1213 1416 1527 1538 1528 1631 1809 1821 1757 1617 1870 1984 1767 1448 1459 1701 1591 1558 1498 1595 1447 1202 1270 1157 1253 1365 1339 1289 1111 1024 867 780 708 671 704 608 580 536 431 425 470 501 562 894 897 815 795 739 654 590 432 397 479 490 411 280 249 192 158 138 125 107 130 92 84 106 272 516 467 528 956 968 998 911 749 304 230 202 236 258 196 226 233
1140 1251 1244 1275 1393 1473 1506 1621 1735 1714 1684 1725 1610 1735 1745 1518 1440 1561 1569 1632 1473 1413 1513 1299 1286 1188 1324 1341 1342 1187 1081 872 744 702 648 608 608 569 514 609 538 432 395 436 521 653 825 739 751 675 600 523 418 358 368 417 348 196 218 268 157 122 110 72 136 143 113 186 288 504 637 514 649 870 809 931 782 763 680 384 344 373 321 395 475
1148 1313 1341 1266 1333 1441 1516 1576 1573 1673 1779 1922 1631 1606 1632 1553 1489 1672 1827 1540 1488 1480 1426 1379 1409 1271 1323 1316 1247 1144 951 885 931 818 670 718 665 535 458 568 498 524 296 340 501 522 440 637 698 714 613 571 542 448 333 266 230 343 348 305 232 150 80 99 126 103 123 170 337 470 530 526 494 511 450 709 636 637 578 456 501 571 537 593 377
1212 1305 1288 1350 1394 1380 1449 1432 1516 1569 1676 1638 1517 1513 1451 1443 1484 1569 1651 1753 1570 1389 1137 1357 1414 1562 1448 1367 1167 1108 999 982 991 1081 902 917 878 763 524 640 504 608 446 402 406 531 538 465 622 654 596 584 547 320 398 311 246 357 356 336 231 101 74 76 100 90 106 170 295 487 390 404 409 480 346 496 627 444 490 468 531 459 454 531 493
1262 1279 1388 1451 1460 1518 1493 1384 1294 1442 1479 1408 1421 1510 1492 1423 1477 1427 1506 1404 1568 1293 1320 1378 1425 1589 1456 1328 1279 1196 1201 1137 1133 1131 1127 1029 1023 1049 794 480 494 641 459 521 425 380 590 506 620 742 555 577 470 471 411 352 337 363 380 329 238 93 36 67 64 40 90 158 131 242 332 284 338 326 389 328 764 679 422 554 539 534 504 491 608
1513 1205 1386 1461 1484 1474 1304 1168 1250 1339 1428 1480 1500 1565 1584 1440 1386 1372 1336 1312 1326 1281 1161 1314 1365 1456 1427 1280 1346 1243 1231 1195 1226 1172 1432 1254 1138 904 639 512 581 684 592 573 478 447 486 638 609 728 879 594 576 373 306 292 377 284 306 312 218 57 60 16 37 39 95 130 111 156 205 244 372 308 302 298 359 375 512 587 637 816 678 546 567
1819 1550 1293 1166 1344 1386 1355 1073 1089 1168 1437 1326 1446 1488 1539 1331 1185 1167 1192 1096 1251 916 1114 1258 1384 1420 1559 1287 1360 1169 1302 1193 1204 1217 1460 1350 1215 1111 562 587 560 716 734 648 530 526 628 686 638 633 738 820 556 432 329 361 339 300 260 208 200 117 100 51 46 74 58 59 89 162 228 312 219 218 211 220 234 288 466 392 495 641 616 468 507
1488 1536 1492 1474 1267 1193 1216 1068 1080 1000 1030 1116 1237 1318 1302 1208 1119 1086 1084 1038 1092 1385 1178 1313 1364 1178 1532 1326 1371 1583 1354 989 948 932 972 998 1197 1171 848 740 830 891 888 656 610 616 756 878 891 600 556 701 415 507 344 363 348 228 205 191 174 121 91 57 72 54 31 96 87 142 208 259 234 192 187 182 208 355 384 501 625 798 644 640 805
1541 1249 1030 980 671 576 977 1063 1113 912 1120 1153 1143 1091 1167 1179 1252 1077 1084 1110 706 759 831 1174 1230 1241 1458 1435 1096 1269 986 921 844 998 964 1083 1324 1226 1133 1115 913 890 811 883 665 617 803 946 930 460 399 274 253 304 293 321 281 181 68 152 137 88 54 92 80 62 92 103 152 198 185 196 183 187 130 62 180 247 320 394 495 469 569 508 458
1726 1411 1161 954 692 790 520 677 669 1308 1494 1550 1516 1504 1349 1194 1081 1006 983 1157 848 724 699 1004 893 883 1185 1263 1127 1056 844 820 817 873 1013 953 877 656 830 978 1018 1010 1082 1118 1025 834 773 785 542 350 237 246 233 284 346 283 213 110 140 96 106 90 210 102 115 88 108 186 221 223 216 170 167 148 30 85 147 256 336 318 430 511 510 610 611
1765 1561 1373 1182 762 719 532 470 707 1258 1564 1594 1531 1559 1433 1306 1140 1072 985 807 826 840 803 816 1002 965 1122 1120 1169 1040 882 854 923 891 792 1014 927 818 720 662 954 1080 1321 1311 1117 842 651 686 469 216 232 360 294 291 284 295 208 195 85 54 50 194 54 95 72 69 138 103 160 159 191 208 152 63 2 13 32 106 227 237 300 509 519 545 613
1958 1677 1469 1518 1626 1384 972 759 872 1252 1559 1518 1452 1375 1289 1178 1067 1008 972 1073 998 816 733 780 966 1069 1038 944 942 1017 901 891 843 791 743 925 1003 948 789 788 583 620 701 837 727 681 749 548 481 341 272 254 338 299 277 350 439 340 340 151 57 18 9 189 348 155 228 228 404 200 240 233 157 72 11 67 72 202 150 168 336 439 524 525 490
1852 1814 1727 1640 1629 1280 1074 897 1089 1182 1295 1270 1258 1308 1275 1033 908 904 935 958 952 785 706 625 801 1010 938 745 762 960 858 744 804 776 796 924 926 1019 970 725 600 502 531 668 829 808 690 508 528 511 306 308 257 257 252 296 477 391 134 267 287 144 205 216 123 251 448 408 476 254 274 355 220 34 13 83 175 226 119 191 347 391 473 507 422
2008 2039 1908 1824 1742 1680 1557 1266 1209 1342 1268 1270 1145 1257 1329 1260 922 925 984 1041 1029 886 812 545 613 776 943 668 790 802 768 587 668 636 573 652 776 838 930 779 491 554 476 410 397 574 446 500 572 590 511 419 302 256 252 368 236 486 531 188 274 204 295 392 266 281 453 458 383 296 458 386 268 145 92 108 162 201 51 114 317 382 446 443 359
1997 2024 1950 1861 1856 1819 1730 1530 1379 1248 1249 1405 1488 1441 1283 1154 1134 1010 1017 1108 1061 808 764 738 708 640 832 925 878 711 696 608 670 589 597 539 714 700 727 680 532 469 435 309 453 280 375 468 536 640 676 662 404 220 251 317 338 540 770 1185 689 334 256 136 360 448 523 487 399 347 445 362 533 482 251 176 208 187 56 124 288 337 315 311 219
1834 1784 1679 1649 1686 1667 1569 1398 1190 1298 1267 1420 1279 1388 1517 1327 1195 1155 1137 1174 1092 952 1070 1112 1006 906 998 937 783 844 583 586 350 486 310 459 514 529 569 680 594 410 357 377 296 318 413 364 508 651 770 478 430 329 278 230 260 337 416 514 408 306 349 201 188 340 95 105 257 195 286 210 422 448 403 328 245 189 162 116 134 158 219 236 209
1430 1521 1562 1518 1530 1544 1373 1249 1113 889 1146 1260 1329 1361 1289 1426 1210 1100 1061 996 970 1044 827 804 699 999 1048 945 1034 776 604 584 511 478 518 397 392 403 546 562 548 379 368 421 429 337 489 468 478 440 776 624 610 556 442 349 276 365 298 228 339 451 555 328 265 300 197 119 110 86 85 377 603 542 523 574 320 270 317 237 120 96 176 101 107
1286 1356 1444 1462 1387 1222 1068 1000 1021 927 1058 1241 1395 1564 1412 1467 1278 1192 1088 1066 1189 872 833 822 707 956 1019 1092 888 819 646 680 630 518 502 456 381 386 420 453 446 322 334 452 410 323 308 509 438 517 533 586 735 782 744 473 393 525 418 260 222 366 575 473 429 347 277 143 137 174 127 158 199 575 690 744 474 238 265 289 131 111 181 146 71
1285 1269 1255 1261 1207 994 765 753 822 733 682 724 1085 1228 1355 1496 1491 1283 1044 1163 855 790 748 737 659 863 905 991 996 800 554 703 536 493 408 357 412 474 466 368 305 397 344 358 412 285 244 436 466 579 564 583 768 968 843 590 441 681 486 388 328 450 409 292 284 324 394 337 358 178 198 130 157 372 231 234 290 327 220 263 287 108 103 114 28
1155 1112 1149 1245 1178 996 861 775 602 519 562 704 808 950 1028 1392 1438 1353 1198 1256 1259 805 773 823 693 856 794 938 843 550 490 423 420 409 408 351 320 404 451 297 249 360 299 279 390 347 316 461 556 586 498 408 739 770 622 581 606 801 756 722 584 437 320 279 222 206 313 359 453 328 144 136 255 367 242 217 202 268 233 261 256 200 153 71 8
Wind_Speed
31 34 33 36 34 32 35 35 37 37 36 35 35 36 36 36 35 35 35 34 33 31 31 30 30 31 31 31 32 32 33 33 33 31 31 34 32 31 27 25 24 22 23 25 26 26 27 28 27 27 26 27 26 26 26 24 23 22 20 18 18 17 16 17 21 17 10 7 7 7 7 10 10 7 8 7 6 7 6 5 4 5 6 9 11
35 34 33 36 35 35 37 37 37 37 36 35 34 34 35 35 36 35 35 34 33 31 30 30 30 30 30 32 32 32 32 33 32 31 30 33 32 31 28 26 24 24 25 26 26 27 28 28 28 28 26 24 25 26 26 24 22 21 19 17 17 16 15 15 17 18 14 10 6 6 7 8 8 8 7 5 6 7 6 6 6 4 5 10 10
34 34 33 37 37 37 36 38 38 37 36 35 34 33 33 34 34 34 34 33 32 31 30 30 30 30 30 31 32 32 32 32 33 31 32 33 33 32 29 26 24 25 26 26 27 27 28 29 28 27 25 25 26 27 25 23 21 19 19 16 16 15 14 14 15 18 12 10 8 5 6 6 4 7 8 8 8 9 9 8 8 8 6 10 9
35 32 33 36 38 35 36 38 37 38 36 34 33 32 31 32 32 32 32 32 31 30 30 30 29 30 30 31 31 31 32 33 33 33 33 32 33 32 31 27 25 26 27 28 28 27 27 28 28 27 26 25 26 26 25 22 21 20 18 16 15 15 16 16 15 16 16 17 16 11 6 5 3 6 7 8 9 10 9 9 11 11 10 9 9
33 32 31 32 34 34 35 37 35 38 36 35 33 33 32 32 32 31 31 31 30 30 30 29 30 30 31 31 31 31 32 32 33 33 32 31 33 32 30 28 26 27 28 28 27 26 26 26 25 24 23 24 24 23 23 23 22 20 17 15 13 12 12 12 12 11 12 11 12 13 10 9 5 6 7 8 9 9 9 9 10 10 10 10 9
31 31 30 31 32 33 34 35 36 37 36 35 34 33 33 32 32 32 31 31 31 30 30 30 31 31 32 31 30 30 31 32 32 31 29 31 31 30 30 27 25 27 29 29 28 26 26 25 23 22 22 23 24 22 22 22 21 20 17 15 13 12 11 10 10 9 9 9 7 6 7 7 6 4 9 9 9 9 10 10 10 10 10 11 11
31 29 29 29 29 31 32 33 35 35 34 34 34 33 32 32 32 31 31 31 31 31 30 30 31 31 31 31 31 31 31 32 31 31 29 29 30 30 29 27 25 27 28 29 27 26 25 24 21 21 21 21 23 22 21 21 21 19 18 16 15 13 12 11 9 8 7 5 4 5 5 6 5 4 8 8 10 10 10 11 11 12 12 11 12
27 27 28 27 27 30 30 32 34 34 34 33 33 32 32 32 32 31 31 31 31 31 30 30 31 31 31 31 31 30 31 31 32 33 29 29 29 30 29 27 25 26 28 28 26 26 26 22 20 20 20 21 21 22 22 22 21 21 19 18 17 16 14 12 11 nan nan nan nan 3 4 6 7 6 11 12 13 13 14 13 13 13 12 12 10
26 26 26 26 27 32 28 30 32 34 33 34 33 33 32 32 31 31 31 30 29 29 29 29 30 31 31 32 32 32 32 31 31 31 30 30 30 28 28 26 24 24 25 24 24 25 24 22 20 20 20 21 21 22 22 21 20 20 20 19 19 18 16 14 nan nan nan nan nan nan nan nan nan nan 12 13 13 14 14 13 13 13 13 12 11
26 24 25 24 27 29 28 29 31 33 33 34 33 32 32 32 31 30 29 28 29 28 28 29 30 31 31 32 32 32 33 33 33 34 33 33 31 28 26 23 22 25 27 28 26 24 23 21 20 20 21 22 22 23 22 21 20 20 20 21 20 18 16 13 nan nan nan nan 7 7 5 9 10 10 14 15 16 17 17 17 14 14 13 14 14
26 24 24 25 30 28 28 29 30 32 33 34 32 32 32 31 31 29 28 28 27 28 28 29 29 30 31 31 32 31 33 33 34 35 35 35 34 31 30 26 21 22 27 28 27 24 22 21 21 21 22 22 23 23 21 20 19 19 20 21 19 17 14 11 nan nan nan nan 9 nan nan 9 10 10 15 17 18 18 17 17 16 16 17 17 16
26 25 24 25 31 28 28 29 31 32 33 33 32 32 32 30 29 28 28 27 26 27 26 27 28 29 30 31 32 31 33 34 34 35 36 35 35 33 32 27 22 22 26 28 27 24 22 21 21 22 22 23 23 23 23 21 19 19 20 20 18 15 12 8 nan nan 11 11 10 9 11 12 12 13 17 17 18 19 19 19 19 19 18 17 17
27 27 27 28 30 28 29 30 31 33 34 35 32 31 30 29 29 28 26 24 25 25 26 27 27 26 27 28 30 31 32 34 34 34 35 36 35 33 31 29 23 22 25 28 28 26 23 21 22 22 23 23 23 22 21 20 20 20 20 20 17 15 12 nan nan nan 11 11 10 11 12 11 12 15 16 17 18 19 19 18 18 18 18 18 19
28 28 29 30 29 33 30 31 32 33 34 33 32 30 30 28 27 27 26 25 25 25 24 25 26 25 26 26 27 28 30 32 33 34 35 35 36 33 31 28 22 21 24 28 29 27 24 22 22 22 22 23 22 21 21 21 20 20 19 19 17 15 14 11 12 11 12 12 11 13 13 11 13 15 16 17 17 17 18 18 18 18 19 19 18
28 30 31 30 32 33 36 33 34 34 34 33 31 30 29 28 27 27 27 27 26 25 24 25 26 26 26 26 26 28 31 33 33 35 36 35 35 34 30 27 21 20 23 27 29 28 26 23 22 23 22 22 22 21 21 21 21 20 19 17 15 12 13 nan nan nan 12 11 11 nan 13 13 15 16 18 18 18 18 18 18 18 18 19 19 nan
29 31 31 32 33 34 35 37 36 35 35 34 32 31 29 29 29 29 29 28 27 25 25 25 26 28 27 27 27 29 32 34 35 36 35 34 34 33 30 25 20 19 22 25 27 27 26 24 23 24 23 22 22 22 22 22 21 20 19 17 15 12 10 11 nan nan 11 11 11 12 13 14 15 17 18 19 20 19 19 19 19 19 20 20 21
30 32 34 35 36 36 35 36 36 37 35 34 33 31 30 31 30 30 30 29 28 26 25 26 27 29 28 27 27 29 32 36 38 36 35 34 33 31 28 24 19 19 21 24 25 25 26 26 24 24 24 23 23 22 22 22 22 21 19 18 16 13 11 11 11 12 12 12 11 12 13 14 17 19 20 20 20 21 21 20 20 21 21 21 21
31 33 34 35 36 35 35 36 37 36 35 34 34 32 32 32 31 30 30 29 28 27 26 27 28 29 29 28 29 32 35 37 37 37 36 34 32 29 26 22 19 19 21 23 24 24 26 27 26 25 24 23 23 22 23 22 22 21 19 18 17 15 14 12 12 12 13 12 12 13 13 15 16 19 21 21 21 21 21 21 21 nan nan nan 22
30 32 34 34 35 35 36 35 36 35 34 31 30 33 34 32 30 30 29 28 28 27 27 27 29 29 30 31 34 35 36 37 39 38 37 35 33 30 26 22 19 19 21 23 23 24 26 27 27 26 24 23 23 22 22 22 22 21 21 19 18 15 15 12 12 13 13 11 11 13 14 15 17 18 20 nan nan 22 22 22 nan 22 21 21 20
29 30 32 32 35 37 36 35 34 33 32 30 31 31 33 32 31 30 29 28 28 27 27 27 30 31 32 34 36 36 36 36 40 38 37 34 31 30 28 22 19 19 20 23 25 25 26 27 27 26 25 24 24 23 22 21 21 21 20 20 19 18 13 12 14 14 13 13 12 13 16 17 18 20 21 22 22 22 nan 23 nan nan nan 22 22
29 31 32 33 35 36 37 34 33 33 31 30 29 28 29 31 29 30 29 29 28 28 27 29 30 31 32 34 33 33 33 34 36 35 35 32 32 32 30 25 21 19 21 24 26 25 27 27 26 27 27 25 24 23 22 21 20 20 20 19 19 13 13 14 14 13 13 14 14 16 17 18 19 20 21 22 22 nan nan nan nan nan nan nan nan
30 29 32 34 35 35 36 34 30 30 30 27 26 25 26 26 26 26 26 27 28 29 28 28 29 30 33 32 31 32 31 31 32 34 31 32 31 31 30 26 22 20 22 24 26 26 27 27 27 27 27 26 25 18 18 19 19 19 18 17 14 13 14 14 14 14 14 14 15 17 nan nan nan 20 nan nan nan nan nan nan nan nan nan nan nan
31 30 31 33 34 34 34 31 29 29 28 27 25 24 26 25 25 25 25 27 27 27 27 29 29 31 31 31 31 31 32 31 29 30 30 31 31 30 28 26 23 22 23 25 26 27 27 27 27 27 25 22 18 17 15 14 14 18 16 13 12 12 13 14 14 14 14 14 15 19 19 20 20 nan nan nan nan nan nan nan nan nan nan nan nan
31 30 31 31 31 32 32 29 28 28 27 25 24 24 24 24 23 25 25 25 26 25 27 28 29 30 30 30 30 32 32 30 29 32 32 29 29 29 27 25 24 23 25 24 27 27 29 27 26 26 22 17 17 17 15 13 12 11 11 11 11 12 12 12 12 13 14 15 nan nan nan nan nan nan nan nan nan nan nan nan nan nan nan nan nan
30 30 30 31 32 33 32 28 26 25 25 24 25 24 24 24 24 25 25 26 26 26 27 28 29 28 28 27 30 31 31 30 28 27 27 27 26 24 22 19 19 21 20 21 21 23 23 23 21 19 17 18 17 18 17 14 12 nan 11 10 11 10 10 10 11 nan 13 14 16 nan nan nan nan nan nan nan nan nan nan nan nan nan nan nan nan
29 30 31 32 32 33 32 28 26 24 24 24 24 24 25 25 26 26 27 27 27 27 27 28 28 28 27 28 30 30 29 29 28 28 27 27 25 23 20 19 19 20 18 18 21 21 22 21 20 19 18 17 17 17 17 nan 13 nan 10 9 9 9 9 10 nan 11 12 13 nan nan nan nan nan nan nan nan nan nan nan nan nan nan nan nan nan
28 29 31 31 32 32 31 27 25 23 24 24 24 24 25 25 26 28 28 28 27 27 28 29 29 29 30 30 30 29 28 27 27 27 27 25 25 23 22 20 20 20 18 19 21 21 21 21 20 19 19 19 18 17 17 16 13 12 10 9 8 8 9 nan 11 11 11 12 nan nan nan nan nan nan nan nan nan nan nan nan nan nan nan nan nan
27 29 30 30 31 31 30 27 23 21 22 23 24 24 25 25 26 28 28 29 28 27 27 28 29 30 31 31 30 29 28 26 24 25 26 25 25 23 22 21 21 22 20 19 21 21 21 20 20 20 20 19 19 18 17 16 14 12 11 9 7 8 9 11 12 13 13 13 nan nan nan 15 nan nan nan nan nan nan nan nan nan nan nan nan nan
28 30 30 30 29 28 28 25 21 18 20 22 23 24 24 25 27 29 29 30 28 27 27 28 29 30 31 31 30 29 27 25 23 24 24 24 23 23 22 21 21 21 21 20 21 21 21 20 20 20 19 19 19 18 17 16 14 12 12 10 8 8 9 11 12 14 nan 15 nan nan nan nan nan nan nan nan nan nan 20 22 22 nan nan nan nan
28 30 30 28 26 25 25 22 20 16 18 19 20 23 25 25 27 29 30 29 28 28 28 28 29 29 29 29 29 27 25 23 23 22 22 23 23 24 23 23 21 20 20 21 20 21 21 20 20 20 20 20 19 18 16 16 14 13 12 11 10 8 8 9 11 14 nan nan 16 17 17 16 15 15 15 16 17 17 18 19 21 21 nan nan nan
28 29 29 26 23 22 22 22 20 17 17 16 17 20 22 23 25 26 28 27 27 26 26 26 26 25 26 27 26 24 23 22 22 21 20 22 22 23 25 26 23 20 20 21 20 21 21 20 20 20 20 19 19 18 16 16 15 13 13 13 11 9 9 10 11 nan nan nan 17 16 18 17 15 15 13 13 15 16 17 18 19 20 21 nan nan
29 30 28 25 21 19 19 21 20 18 17 13 12 14 16 17 20 20 21 21 23 23 24 23 21 21 24 24 24 23 22 22 22 21 20 21 21 21 21 23 23 22 22 22 22 22 22 21 21 21 20 19 19 18 16 16 16 15 13 13 11 9 9 10 12 nan nan 16 16 16 17 19 20 19 18 16 13 13 15 16 16 18 18 18 18
27 28 26 23 19 17 17 19 19 18 15 12 11 10 11 12 13 13 13 14 16 18 20 20 20 20 22 22 22 22 21 22 23 21 20 20 20 20 18 18 22 24 24 24 24 23 23 21 21 21 20 18 18 17 16 16 16 15 14 13 11 9 9 nan 13 14 15 15 15 15 16 17 19 20 19 18 17 14 12 13 14 15 16 15 16
27 26 24 21 17 14 16 16 16 15 13 13 14 10 10 10 10 9 10 10 12 16 18 20 20 20 20 20 20 21 21 21 22 21 20 19 19 19 17 18 21 25 25 25 24 23 22 20 20 19 19 17 17 17 16 16 16 15 14 13 10 9 nan nan 12 13 14 14 14 14 14 15 15 16 16 19 17 14 12 11 11 13 13 12 12
26 25 23 19 16 14 15 14 14 13 12 14 14 12 10 8 8 7 8 10 12 16 18 20 19 18 18 18 18 19 19 19 20 21 20 18 18 18 18 19 21 23 24 23 23 23 21 19 18 18 19 17 17 16 15 16 17 16 14 12 11 10 nan nan 12 nan 13 14 13 14 14 13 13 13 14 14 15 14 11 10 10 10 11 10 10
24 23 21 17 15 15 15 11 13 15 16 18 18 15 9 7 5 4 7 11 13 15 17 18 17 16 15 16 17 17 17 17 18 20 20 18 17 18 19 20 23 24 22 23 22 21 21 19 17 17 18 17 17 16 15 16 16 15 14 13 12 nan nan nan nan nan nan 13 13 12 13 12 12 12 11 11 11 12 11 8 8 8 8 8 8
23 22 20 16 13 15 14 16 14 16 17 18 17 14 8 6 2 4 7 10 13 16 16 17 16 15 15 15 15 16 15 14 15 18 20 19 18 18 19 21 24 25 22 22 22 21 20 19 17 15 16 17 16 17 17 17 17 16 15 14 13 nan nan nan nan nan nan 13 13 13 12 11 12 11 10 9 8 7 11 9 9 7 6 5 7
22 23 22 19 19 19 17 18 20 18 16 16 16 16 16 12 8 7 9 10 11 15 15 16 16 15 15 14 14 15 14 13 14 17 19 19 19 20 21 22 23 25 23 22 21 21 20 18 18 16 15 15 15 17 17 17 17 16 15 15 13 12 nan nan nan nan nan nan nan 13 12 11 10 9 8 7 6 5 7 10 10 10 9 6 6
29 28 27 27 27 26 21 18 19 18 19 19 19 21 22 21 20 17 13 11 11 12 15 15 15 16 15 13 14 15 16 17 17 19 19 19 19 20 22 21 21 22 23 22 21 21 20 18 18 18 16 14 15 17 17 17 17 17 16 16 14 12 nan nan nan nan nan nan nan 13 12 11 10 9 8 6 6 5 5 5 6 7 10 11 11
31 24 24 25 23 22 19 18 19 19 20 21 21 22 24 24 23 20 16 15 15 12 12 14 15 16 16 14 15 17 18 16 16 17 19 19 19 20 20 19 17 17 18 20 21 22 21 20 18 19 19 18 18 19 18 17 18 19 nan 16 14 nan nan nan nan nan nan 13 13 12 12 11 10 10 8 nan 6 6 6 7 6 7 9 12 13
26 21 21 22 22 22 23 19 13 13 16 18 20 20 21 23 21 17 14 17 16 15 16 16 17 17 17 15 15 16 16 16 16 17 17 18 23 23 18 16 15 15 16 17 21 22 22 19 18 19 21 21 19 18 17 17 19 20 19 nan 15 nan 11 10 11 nan 12 13 13 12 13 11 11 10 nan nan 7 7 8 8 8 8 9 11 14
22 22 23 23 23 27 28 22 19 21 20 18 20 20 22 24 22 21 22 26 23 18 16 18 17 21 20 19 16 14 13 13 15 17 18 19 18 19 18 15 15 15 16 17 19 20 20 19 19 20 19 19 19 17 17 16 16 17 nan nan nan 16 nan nan nan nan 12 12 12 13 12 11 12 nan nan nan nan 8 9 9 9 10 10 11 12
20 25 26 23 21 19 19 20 21 21 19 20 21 21 23 25 25 25 27 31 27 21 22 20 19 22 21 21 18 14 12 12 13 16 16 19 16 17 16 18 21 18 17 17 17 18 18 19 19 19 19 17 18 18 17 13 16 16 19 20 nan nan nan 11 11 10 11 11 10 11 12 11 13 nan nan nan nan 9 10 10 11 11 12 12 12
16 19 22 21 19 16 17 22 22 19 17 17 18 20 26 30 30 31 31 32 27 23 25 25 22 22 22 24 21 16 12 12 16 16 17 16 16 15 17 21 19 21 19 17 16 16 18 19 19 17 18 19 18 18 16 14 16 18 17 15 17 14 14 11 13 12 12 11 10 11 11 13 14 nan nan nan 10 10 10 11 12 12 13 13 13
19 19 19 18 18 18 16 17 19 19 17 18 18 18 23 28 34 34 32 31 26 23 24 23 19 19 22 24 22 18 12 12 20 21 21 18 17 16 18 20 21 21 23 21 16 14 17 18 17 17 16 19 19 18 16 15 14 15 18 18 17 13 11 16 15 15 13 12 12 11 11 11 15 15 nan 12 11 11 nan 12 12 13 13 13 13
22 20 18 16 15 14 13 13 14 14 15 17 19 21 23 26 29 29 29 29 26 23 24 24 19 16 18 22 21 18 15 16 18 26 19 20 18 17 20 20 19 22 23 21 19 17 16 17 17 16 16 18 21 19 17 17 15 15 16 19 19 16 13 16 16 16 15 12 13 12 11 11 15 14 12 13 12 13 nan 13 13 13 13 13 13
22 19 18 16 16 15 14 14 14 13 14 15 17 21 23 27 29 28 27 28 26 24 25 27 24 20 19 20 21 21 20 22 26 28 19 17 16 16 18 20 20 22 24 24 21 17 17 18 19 18 17 18 20 19 18 18 17 15 15 19 20 18 15 17 13 18 nan 14 12 12 11 11 14 14 13 13 14 14 14 14 14 13 13 13 13
23 22 21 20 21 21 19 19 17 15 14 14 13 17 20 23 24 24 25 26 26 25 25 24 24 23 22 22 22 23 25 24 24 24 21 15 19 21 20 21 20 22 24 25 20 20 20 20 21 19 19 18 19 19 18 19 18 16 14 15 17 17 15 14 14 16 16 16 15 nan nan 10 13 14 13 14 14 14 15 14 14 nan 13 13 13
25 24 23 22 22 21 20 19 18 18 20 19 16 19 20 20 22 25 26 27 27 27 27 23 22 22 21 23 23 25 26 23 21 23 21 17 21 24 24 22 22 22 24 25 23 21 19 21 23 23 19 19 18 18 18 18 18 17 16 14 15 14 15 15 16 15 16 16 15 15 13 12 12 14 15 15 14 14 14 14 14 13 14 14 nan
23 26 27 25 24 22 21 20 20 20 20 23 22 20 21 20 20 25 28 28 28 26 26 24 23 22 19 19 23 24 24 22 21 23 22 21 21 23 23 22 24 25 25 26 24 21 19 19 20 22 20 17 17 15 16 18 17 17 15 15 15 16 15 16 15 16 16 14 15 15 16 16 15 16 17 17 16 14 13 13 13 13 14 14 nan
25 27 27 27 27 25 22 21 21 22 23 24 24 25 21 18 23 28 29 27 26 26 26 25 23 24 21 19 22 23 22 21 23 24 23 22 22 22 22 24 27 28 28 28 28 24 19 19 22 21 21 17 14 13 15 17 17 17 16 17 16 15 13 14 15 16 17 17 15 17 17 16 15 18 17 17 16 15 14 14 13 13 14 nan nan
Wind_Direction
309 310 311 309 309 308 306 302 300 299 299 302 304 306 308 311 312 313 313 313 314 314 314 317 320 321 324 324 325 327 328 328 329 330 328 325 326 325 327 325 320 318 318 316 314 314 313 310 308 307 306 306 305 304 302 303 301 301 302 300 297 298 299 302 303 302 302 298 300 304 301 296 300 286 275 249 254 254 246 248 257 257 249 249 249
310 308 309 309 306 307 306 302 300 299 300 302 303 305 307 309 311 312 311 311 311 312 313 315 317 320 323 324 325 327 326 326 327 327 328 325 328 329 329 324 320 318 316 314 312 313 313 313 310 306 304 301 302 302 301 302 303 301 300 298 298 296 297 295 298 306 316 321 301 269 260 266 274 278 268 293 263 242 232 220 213 230 229 239 242
304 306 306 307 306 306 303 302 301 300 301 301 302 303 304 307 308 309 308 308 309 310 311 313 315 319 322 323 325 326 324 324 326 327 326 326 331 330 327 323 319 315 313 313 313 314 313 311 308 304 302 303 304 305 303 302 302 301 299 299 297 298 298 300 306 307 317 302 285 269 263 250 246 272 288 276 256 243 236 231 229 232 232 240 243
304 303 305 305 305 304 303 302 302 301 301 300 301 302 303 304 305 305 304 305 306 307 309 312 315 317 321 322 322 322 322 323 324 326 328 331 330 332 328 324 316 313 316 316 315 315 313 311 308 306 306 305 306 307 307 306 305 305 304 306 310 312 310 309 306 306 311 317 323 319 348 347 348 276 264 254 252 247 243 242 242 243 247 249 251
302 303 304 306 306 305 304 303 303 302 301 302 301 302 303 303 304 304 304 303 305 306 308 311 313 316 318 320 322 322 322 324 324 326 328 330 331 333 331 324 317 318 318 318 318 315 311 309 306 303 303 307 308 306 306 307 305 304 304 302 300 298 294 294 294 292 287 284 298 326 333 330 325 262 258 252 251 248 247 247 249 250 251 249 249
302 304 304 306 307 306 305 304 304 303 302 303 303 304 304 304 304 304 304 303 305 305 307 310 312 315 317 319 318 317 319 321 323 326 327 330 332 335 332 324 319 320 321 322 320 317 313 310 306 306 306 309 312 308 305 305 302 300 297 295 295 293 291 284 278 275 273 279 298 324 333 332 323 294 260 258 259 253 250 250 249 248 250 257 256
303 305 306 307 307 307 306 306 305 304 303 303 304 304 303 304 305 305 304 303 305 306 306 308 311 313 315 317 318 319 320 321 322 324 328 331 333 333 331 325 322 321 323 322 322 316 313 313 310 309 310 313 315 312 308 305 301 300 298 299 298 297 294 284 272 262 271 301 316 327 336 317 306 288 275 271 262 255 256 252 250 252 249 247 247
304 307 307 307 307 307 308 308 307 305 305 304 304 303 303 304 305 303 302 303 304 303 305 308 310 313 315 316 317 317 317 318 321 325 328 330 329 332 333 329 322 319 321 323 321 316 316 315 313 312 313 314 317 315 311 307 303 302 302 304 304 305 303 295 284 nan nan nan nan 315 307 292 281 288 268 265 259 255 251 254 255 252 249 246 252
305 306 306 304 305 309 308 307 307 306 305 304 304 303 303 303 301 300 300 300 301 302 304 306 310 312 315 316 317 317 315 316 319 323 324 323 326 330 332 330 323 317 316 320 319 317 317 318 315 313 313 314 316 316 313 308 303 304 306 307 307 308 308 304 nan nan nan nan nan nan nan nan nan nan 276 273 261 261 260 266 265 259 253 248 245
306 304 305 304 308 308 307 307 307 305 303 302 301 301 301 299 297 296 298 299 301 302 303 306 309 312 315 316 315 315 315 317 320 322 323 323 324 326 327 327 318 314 316 316 316 318 320 318 315 313 313 315 315 315 311 308 304 304 306 306 306 310 312 308 nan nan nan nan 278 276 260 277 283 272 267 263 259 257 251 245 245 245 249 251 248
308 306 308 308 311 308 308 307 305 302 301 300 298 298 297 295 296 296 296 298 299 301 303 305 310 313 314 313 312 312 312 314 318 321 321 321 323 324 322 321 315 313 316 316 316 318 322 318 315 316 317 316 315 315 314 308 304 303 305 305 307 312 312 310 nan nan nan nan 288 nan nan 279 273 268 268 264 259 256 254 253 252 252 252 250 251
313 311 311 312 312 311 309 307 304 301 299 297 297 296 295 294 295 295 295 296 297 300 302 304 309 312 312 311 309 309 309 311 313 317 317 316 318 319 320 322 318 312 314 314 312 317 322 320 317 320 320 318 317 315 312 306 302 303 305 304 307 310 303 296 nan nan 284 278 276 274 276 272 272 272 270 266 263 259 254 251 251 253 251 249 248
314 314 315 313 314 311 310 306 304 301 299 298 297 297 295 296 296 294 291 289 294 298 301 302 306 309 308 307 306 307 307 309 311 314 315 316 315 317 320 321 316 309 311 311 312 316 322 323 321 321 320 317 316 313 306 299 299 301 303 303 305 307 305 nan nan nan 285 280 279 276 272 266 267 267 266 263 261 258 255 254 254 254 253 251 250
314 315 315 313 313 313 308 305 303 301 300 300 299 297 296 295 293 290 286 285 289 295 297 300 303 304 302 301 300 304 306 307 311 314 314 312 313 314 316 319 313 308 309 311 312 316 323 327 324 321 319 315 313 308 300 295 296 299 299 300 304 305 304 299 292 289 286 282 275 273 273 273 267 264 264 262 262 262 260 259 257 256 253 253 256
313 314 314 313 312 313 311 307 305 304 303 301 298 296 295 291 288 284 284 286 288 292 297 299 300 299 296 295 298 302 305 308 311 312 309 308 309 311 314 315 310 305 307 308 311 316 324 328 324 319 315 312 310 306 300 297 297 297 297 299 302 307 318 nan nan nan 285 282 281 nan 278 275 261 264 269 270 268 268 265 263 261 261 260 261 nan
310 312 312 312 313 314 313 311 309 306 304 301 297 294 290 287 284 284 284 286 288 292 294 296 296 295 293 296 301 304 307 307 306 307 305 306 306 308 310 310 305 302 302 305 310 316 322 324 323 317 313 312 310 307 302 299 298 297 297 300 302 301 301 306 nan nan 286 284 281 279 278 279 283 274 270 269 271 269 268 266 265 266 267 268 268
308 313 314 315 317 317 315 313 310 307 302 298 295 290 286 284 284 284 286 287 290 292 292 293 293 293 295 300 303 303 304 303 303 304 303 303 303 304 307 304 298 295 296 301 307 314 317 318 319 315 311 311 311 308 304 301 299 297 297 299 299 299 299 303 294 286 283 282 281 281 281 285 287 288 283 279 275 272 271 274 272 269 270 273 271
311 315 316 317 318 319 316 313 310 307 302 295 290 285 284 284 284 285 287 288 290 291 290 291 291 293 298 300 300 300 302 301 302 303 302 302 300 301 303 297 292 288 292 297 301 309 312 313 315 311 308 308 309 307 304 301 299 297 296 296 296 295 294 298 291 285 282 282 278 280 281 282 285 284 284 281 280 280 279 277 273 nan nan nan 268
313 314 315 318 321 320 318 314 311 307 301 294 291 287 286 285 285 287 288 289 290 290 291 292 294 297 301 305 301 300 302 301 302 302 301 301 299 300 300 294 288 288 289 292 296 302 307 309 310 308 306 305 304 305 304 301 299 298 296 296 295 295 300 304 293 286 282 274 275 276 279 276 278 280 283 nan nan 280 278 278 nan 280 279 275 274
310 312 315 320 323 323 318 314 310 306 301 296 293 292 293 293 292 288 289 291 290 290 294 297 302 305 308 307 306 304 305 303 303 302 301 300 300 300 299 291 287 287 288 288 292 299 303 305 303 302 302 302 301 302 302 300 300 297 296 297 299 306 309 301 298 291 285 278 275 276 277 280 282 283 281 282 279 280 nan 281 nan nan nan 275 275
308 314 315 321 325 325 321 314 312 308 301 297 292 292 294 297 295 293 295 297 296 297 300 304 305 307 305 304 305 305 303 302 303 300 301 300 299 299 298 289 282 282 284 285 288 294 299 300 298 298 299 300 299 298 298 299 298 295 294 295 303 305 304 305 302 295 291 288 282 277 279 284 281 282 282 281 283 nan nan nan nan nan nan nan nan
307 311 316 319 322 324 323 315 310 308 301 295 293 291 293 295 291 294 298 301 306 307 308 308 308 305 307 307 305 304 304 301 298 298 297 300 300 297 296 291 284 278 279 282 284 291 297 297 297 296 297 299 301 299 297 293 293 291 289 297 302 300 305 305 303 300 297 292 287 282 nan nan nan 279 nan nan nan nan nan nan nan nan nan nan nan
308 309 312 319 319 319 320 315 311 308 305 300 295 293 294 291 294 297 298 307 310 312 309 308 307 308 308 308 304 304 306 303 296 294 295 297 299 296 293 290 284 282 282 281 283 287 293 296 296 297 293 299 298 294 296 298 295 290 293 295 290 297 301 303 303 303 296 290 288 291 291 287 286 nan nan nan nan nan nan nan nan nan nan nan nan
309 311 311 316 316 314 318 319 317 314 309 300 296 294 295 293 296 301 302 304 305 305 304 303 305 306 306 305 303 305 305 301 297 295 295 299 298 294 290 285 283 281 284 281 281 284 289 290 292 292 294 292 289 293 292 292 295 295 288 286 288 295 300 301 300 299 299 296 nan nan nan nan nan nan nan nan nan nan nan nan nan nan nan nan nan
306 308 311 316 318 316 316 320 318 314 308 299 298 296 296 296 297 299 299 299 299 300 298 299 300 301 299 300 304 304 305 303 299 294 293 298 299 294 289 284 279 277 279 284 283 288 294 296 291 291 285 285 286 288 290 291 290 nan 282 280 285 289 292 293 295 nan 298 293 290 nan nan nan nan nan nan nan nan nan nan nan nan nan nan nan nan
306 311 315 317 319 316 317 317 316 314 307 301 299 295 298 299 301 301 301 301 303 302 299 295 296 294 292 298 301 302 301 301 298 294 293 296 296 292 287 284 278 274 273 276 277 284 289 291 290 285 280 280 281 286 289 nan 294 nan 279 277 279 283 286 289 nan 297 298 296 nan nan nan nan nan nan nan nan nan nan nan nan nan nan nan nan nan
309 312 315 316 317 317 319 317 315 313 312 303 298 296 298 298 299 299 301 303 302 303 300 298 295 294 294 296 297 294 294 296 297 294 292 292 292 289 286 282 272 270 272 274 274 279 285 287 284 280 278 280 282 284 289 291 291 289 279 275 272 273 277 nan 290 295 296 297 nan nan nan nan nan nan nan nan nan nan nan nan nan nan nan nan nan
311 312 314 314 317 320 321 317 313 309 304 300 296 294 293 294 295 292 292 293 295 296 296 293 292 294 296 295 294 295 294 294 295 293 290 289 288 287 284 277 270 268 268 268 273 276 280 281 279 278 281 282 284 287 288 288 288 286 281 276 272 268 271 274 280 284 290 295 nan nan nan 293 nan nan nan nan nan nan nan nan nan nan nan nan nan
317 318 318 320 323 320 318 313 303 304 293 292 292 288 288 291 293 294 292 292 290 291 292 289 290 292 294 296 295 294 294 294 293 290 287 287 286 286 282 274 271 268 267 268 269 274 279 280 278 279 280 282 285 286 287 288 286 283 279 279 274 270 274 278 278 280 nan 285 nan nan nan nan nan nan nan nan nan nan 287 288 290 nan nan nan nan
322 321 321 322 324 321 317 306 297 295 281 285 285 284 287 289 291 292 291 291 289 288 290 289 288 292 296 296 296 295 294 292 291 289 290 289 286 285 281 276 271 265 267 274 269 272 279 277 277 279 282 284 286 285 286 288 287 280 276 275 277 277 276 279 280 276 nan nan 282 287 288 283 281 282 286 290 288 289 289 290 291 294 nan nan nan
320 324 324 323 321 318 309 298 293 290 281 283 279 283 284 288 290 289 287 289 287 285 288 288 289 293 295 296 296 294 291 289 288 289 288 287 286 285 282 276 272 267 270 275 267 269 274 276 277 277 280 284 283 285 288 287 284 276 273 276 275 276 277 276 279 nan nan nan 282 284 290 291 285 281 278 276 285 287 290 291 295 297 300 nan nan
323 325 324 322 320 317 304 296 295 293 290 293 283 285 289 291 293 292 290 290 287 286 289 288 292 295 297 298 295 291 289 286 287 287 286 287 285 289 286 277 276 273 272 274 268 265 271 270 270 272 276 278 280 282 282 283 279 274 276 276 277 278 279 277 279 nan nan 281 282 286 290 290 280 273 268 261 265 283 289 293 298 302 305 307 307
318 320 322 323 321 314 298 296 297 299 300 300 283 283 286 291 294 297 293 286 287 288 288 291 296 297 296 298 295 294 289 287 287 288 286 284 286 288 287 281 279 276 271 268 267 265 266 267 266 268 274 275 277 278 276 277 275 276 274 274 277 281 280 nan 277 281 283 282 281 280 285 287 289 278 270 267 265 261 270 295 305 310 313 311 308
311 311 318 323 313 297 284 284 294 295 294 279 271 267 270 280 292 293 287 293 295 295 295 296 298 297 295 297 297 295 292 287 286 287 283 283 286 287 287 283 280 280 275 266 262 264 272 275 270 272 273 277 277 277 277 280 275 270 271 274 274 276 nan nan 277 281 285 285 277 275 275 281 280 279 279 271 266 270 276 282 305 316 321 321 315
306 311 318 317 311 295 278 279 288 299 289 267 265 259 256 267 287 291 292 303 307 301 299 296 296 297 300 297 294 293 291 290 288 283 283 281 286 289 288 283 284 283 278 267 261 265 271 278 275 276 278 280 279 278 279 279 275 273 272 271 269 265 nan nan 276 nan 287 285 281 274 275 270 267 273 274 277 278 272 275 297 308 314 320 320 315
311 309 307 306 297 281 272 274 280 278 271 262 256 256 245 229 233 297 311 315 304 303 297 295 297 298 300 299 296 290 284 285 285 282 277 279 287 291 288 285 288 282 278 266 261 268 271 275 273 271 280 281 281 279 275 273 271 272 269 266 259 nan nan nan nan nan nan 286 283 279 277 279 280 275 271 277 279 277 265 288 300 315 317 320 319
295 299 296 288 272 264 259 253 258 264 259 259 253 248 229 221 236 341 323 313 306 297 297 300 301 301 299 306 297 292 281 276 281 284 278 279 287 294 288 285 282 277 274 267 264 265 273 274 271 268 274 281 280 278 274 269 268 269 267 262 261 nan nan nan nan nan nan 284 283 284 285 282 275 276 282 277 276 283 277 266 278 276 290 309 308
278 268 258 246 238 235 237 242 245 248 249 247 247 231 221 238 273 302 301 310 310 301 306 309 308 304 299 298 297 290 282 276 282 285 281 283 289 293 290 280 277 272 270 266 264 265 270 276 272 266 265 270 273 275 272 266 263 266 267 262 263 260 nan nan nan nan nan nan nan 285 279 275 278 278 280 281 280 280 287 284 282 280 269 278 287
259 248 243 245 239 227 220 225 238 243 241 239 237 233 234 248 265 276 283 289 292 290 297 300 305 300 296 296 288 279 269 272 278 280 280 283 289 291 293 291 276 270 266 264 264 264 266 270 267 263 258 256 263 266 266 261 258 261 261 257 260 262 nan nan nan nan nan nan nan 284 284 279 275 271 274 283 274 258 259 269 286 286 274 254 267
268 264 267 275 263 240 231 230 227 235 238 239 241 237 240 248 258 262 263 267 267 274 283 291 291 293 292 290 281 276 277 278 286 288 281 283 285 282 289 290 279 270 268 264 265 265 268 269 263 264 263 257 255 260 263 258 254 257 nan 256 260 nan nan nan nan nan nan 284 282 281 282 274 273 272 274 nan 272 270 267 263 255 265 274 267 255
280 284 287 288 281 278 282 266 252 257 251 246 247 250 252 255 256 261 266 265 270 280 277 277 277 277 284 289 289 283 283 287 287 287 285 284 279 275 276 284 279 271 269 271 270 270 270 268 261 260 266 259 253 258 263 260 259 251 254 nan 252 nan 260 272 277 nan 282 280 280 282 277 275 274 274 nan nan 274 268 266 268 264 265 272 280 280
286 290 289 289 290 294 298 304 310 310 302 290 277 269 264 265 268 274 275 268 269 278 281 279 275 272 276 284 288 290 296 294 285 284 285 288 290 280 280 281 274 271 272 273 279 276 274 267 261 259 261 264 257 264 267 268 259 260 nan nan nan 246 nan nan nan nan 281 278 280 281 281 284 281 nan nan nan nan 269 269 267 265 266 271 275 278
271 273 274 274 278 282 279 280 292 299 302 302 297 290 281 278 279 278 278 267 269 285 294 292 295 290 289 293 295 291 297 295 288 283 289 286 289 283 279 267 254 246 258 270 280 281 270 269 267 263 265 263 262 265 276 277 260 262 260 261 nan nan nan 257 263 275 273 278 278 288 286 290 287 nan nan nan nan 265 265 264 267 270 272 275 277
275 278 280 277 276 275 280 290 293 295 303 312 309 301 290 283 279 278 280 278 279 286 288 296 309 312 308 304 298 289 292 294 289 283 277 282 284 270 261 262 264 263 259 259 270 278 269 266 263 263 271 272 266 271 278 282 258 263 260 253 268 274 267 274 282 276 274 279 282 284 288 293 291 nan nan nan 277 270 267 267 270 273 272 271 274
258 264 277 287 289 289 283 286 288 291 297 305 307 296 281 277 276 277 281 286 287 285 282 285 301 301 296 300 301 300 294 283 280 278 275 275 273 264 252 250 259 266 263 260 255 260 270 268 267 264 275 274 274 267 276 273 261 255 249 254 252 256 261 270 286 278 281 286 289 292 288 295 290 290 nan 282 277 273 nan 271 271 274 275 275 276
258 264 276 289 292 286 289 284 275 276 284 295 298 288 279 275 277 283 290 290 290 289 282 279 283 288 290 284 294 300 295 275 274 278 282 269 269 263 249 249 257 265 265 264 259 254 259 261 261 260 271 272 273 271 274 266 256 251 236 229 230 239 265 276 286 277 282 285 289 298 300 298 286 291 290 286 285 276 nan 272 275 277 276 274 275
253 257 261 259 259 263 262 265 265 266 270 276 287 285 279 276 283 294 301 300 298 297 288 285 290 289 283 289 293 296 297 284 276 278 289 279 275 266 256 251 254 259 261 262 259 255 258 256 252 254 263 272 273 269 275 270 250 245 239 231 227 230 254 279 289 275 nan 289 294 301 307 305 294 295 294 290 288 282 277 273 276 277 276 273 273
254 255 259 258 257 257 255 256 265 266 261 261 271 280 277 276 281 288 293 296 299 297 294 293 292 290 293 293 290 290 293 293 291 288 284 277 275 273 259 255 258 260 264 265 266 253 254 257 252 254 259 265 270 264 268 263 257 251 248 242 234 238 265 276 280 286 289 297 299 nan nan 299 291 290 291 291 293 288 283 281 281 nan 277 274 274
256 256 258 255 255 256 253 250 257 264 264 260 271 284 282 283 285 287 293 293 293 295 295 293 283 284 290 287 288 288 291 294 289 289 288 280 273 273 269 260 254 257 258 260 261 253 257 259 254 252 258 257 259 260 262 257 252 248 255 248 242 249 261 265 274 279 283 290 296 302 304 288 286 291 292 291 290 287 286 285 279 277 275 272 nan
263 259 259 258 256 255 251 249 255 261 263 263 268 283 291 288 294 301 306 301 293 286 288 291 283 278 287 290 281 284 286 283 281 287 289 286 279 277 274 271 261 256 255 257 255 253 254 257 257 258 259 257 255 261 262 253 250 249 256 257 253 253 260 266 274 280 271 280 284 304 304 305 305 299 297 298 298 293 291 286 285 281 277 275 nan
255 252 257 256 256 255 250 247 252 261 261 265 277 285 286 289 285 291 300 303 300 289 282 286 285 278 277 282 277 274 275 276 276 281 283 280 279 277 271 270 266 258 253 255 250 244 245 255 253 255 257 257 252 256 256 250 245 249 256 254 254 257 268 279 279 284 279 279 279 290 292 300 301 299 300 299 297 295 291 291 290 283 278 nan nan